Stations météo

réclame
Mon MeteoGroup
Åsele, Suède (2254): Température de l'air & dewpoint: 14.11.2017 01:00:00 - 20.11.2017 01:00:00 (CET)Åsele, Suède (2254): Vitesse du vent & gusts: 14.11.2017 01:00:00 - 20.11.2017 01:00:00 (CET)Åsele, Suède (2254): Direction du vent: 14.11.2017 01:00:00 - 20.11.2017 01:00:00 (CET)Åsele, Suède (2254): reduced air pressure: 14.11.2017 01:00:00 - 20.11.2017 01:00:00 (CET)Åsele, Suède (2254): visibility: 14.11.2017 01:00:00 - 20.11.2017 01:00:00 (CET)Åsele, Suède (2254): Quantités de précipitations: 14.11.2017 01:00:00 - 20.11.2017 01:00:00 (CET)
Date & Time tt [°C] td [°C] ff [km/h] ff [knt] fx [km/h] fx [knt] dd ppp [hPa] vv [km] rr [mm]
20.11.2017 01:00:00 - - - - - - - - - -
20.11.2017 00:00:00 -8,1 -9,7 8 4 16 9 NNW 1008,7 50 0,0
19.11.2017 23:00:00 -7,6 -9,4 7 4 22 12 NNW 1008,5 50 0,0
19.11.2017 22:00:00 -6,7 -8,2 8 5 16 9 NNW 1007,9 50 0,0
19.11.2017 21:00:00 -5,9 -7,4 3 2 19 10 NW 1007,4 50 0,0
19.11.2017 20:00:00 -5,5 -7,3 6 3 13 7 N 1006,9 48 0,0
19.11.2017 19:00:00 -5,6 -7,1 4 2 16 9 N 1006,6 49 0,0
19.11.2017 18:00:00 -5,7 -7,2 5 3 16 8 N 1006,3 50 0,0
19.11.2017 17:00:00 -5,8 -7,3 7 4 19 10 N 1006,2 48 0,0
19.11.2017 16:00:00 -5,7 -7,4 8 5 19 10 N 1006,1 34 0,0
19.11.2017 15:00:00 -5,2 -6,9 9 5 24 13 N 1005,6 33 0,0
19.11.2017 14:00:00 -4,9 -6,4 9 5 22 12 N 1005,1 32 0,0
19.11.2017 13:00:00 -5,0 -6,4 9 5 21 11 N 1004,8 15 0,0
19.11.2017 12:00:00 -5,1 -6,3 8 5 22 12 N 1004,5 14 0,0
19.11.2017 11:00:00 -5,0 -6,4 9 5 19 10 N 1004,0 27 0,0
19.11.2017 10:00:00 -5,2 -6,4 6 3 18 10 N 1003,4 37 0,0
19.11.2017 09:00:00 -5,4 -6,5 8 5 22 12 N 1002,6 12 0,0
19.11.2017 08:00:00 -5,6 -6,8 8 4 17 9 N 1002,2 37 0,0
19.11.2017 07:00:00 -6,0 -7,2 6 3 16 9 N 1001,9 24 0,0
19.11.2017 06:00:00 -6,0 -7,2 8 4 22 12 NNE 1001,6 29 0,0
19.11.2017 05:00:00 -6,0 -7,4 6 4 16 9 N 1001,1 32 0,0
19.11.2017 04:00:00 -5,9 -7,1 6 3 14 7 N 1000,9 29 0,0
19.11.2017 03:00:00 -6,2 -7,3 4 2 13 7 N 1000,6 18 0,0
19.11.2017 02:00:00 -6,7 -7,6 4 2 10 5 NNW 1000,4 23 0,0
19.11.2017 01:00:00 -6,9 -8,0 4 2 11 6 NNW 1000,5 7 0,0
19.11.2017 00:00:00 -7,1 -8,5 4 2 15 8 NNE 1000,4 20 0,0
18.11.2017 23:00:00 -7,1 -8,6 4 2 11 6 N 999,8 - 0,0
18.11.2017 22:00:00 -7,1 -8,5 4 2 11 6 N 999,5 - 0,0
18.11.2017 21:00:00 -7,0 -8,4 4 2 14 8 N 999,5 - 0,0
18.11.2017 20:00:00 -7,2 -8,6 5 3 12 6 NNE 998,9 12 0,0
18.11.2017 19:00:00 -7,1 -8,3 5 3 11 6 NNE 998,7 34 0,0
18.11.2017 18:00:00 -7,2 -8,1 3 2 9 5 NNE 998,5 46 0,0
18.11.2017 17:00:00 -10,7 -11,6 3 2 6 3 NNE 998,2 39 0,0
18.11.2017 16:00:00 -12,2 -13,0 0 0 3 2 N 998,2 44 0,0
18.11.2017 15:00:00 -14,5 -16,0 0 0 4 2 N 997,7 34 0,0
18.11.2017 14:00:00 -13,6 -15,2 2 1 4 2 NNW 997,4 21 0,0
18.11.2017 13:00:00 -13,0 -14,4 0 0 3 2 N 997,2 29 0,0
18.11.2017 12:00:00 -13,2 -14,5 0 0 3 1 N 996,9 22 0,0
18.11.2017 11:00:00 -14,2 -15,6 0 0 2 1 N 997,0 20 0,0
18.11.2017 10:00:00 -14,4 -15,8 0 0 0 0 N 996,8 - 0,0
18.11.2017 09:00:00 -15,3 -16,6 0 0 2 1 N 996,6 1,3 0,0
18.11.2017 08:00:00 -15,9 -17,4 0 0 0 0 N 996,1 47 0,0
18.11.2017 07:00:00 -15,4 -17,1 0 0 1 1 N 995,8 44 0,0
18.11.2017 06:00:00 -14,5 -16,2 0 0 0 0 N 995,9 45 0,0
18.11.2017 05:00:00 -12,9 -14,1 0 0 2 1 N 995,6 36 0,0
18.11.2017 04:00:00 -11,8 -13,1 0 0 2 1 N 995,8 37 0,0
18.11.2017 03:00:00 -10,1 -11,1 0 0 5 3 N 995,9 37 0,0
18.11.2017 02:00:00 -9,6 -10,8 0 0 4 2 N 995,7 37 0,0
18.11.2017 01:00:00 -7,2 -7,9 0 0 3 2 N 995,3 29 0,0
18.11.2017 00:00:00 -5,2 -5,9 0 0 4 2 N 995,1 28 0,0
17.11.2017 23:00:00 -3,9 -4,3 0 0 3 2 N 994,8 37 0,0
17.11.2017 22:00:00 -4,6 -5,1 0 0 3 2 N 994,7 31 0,0
17.11.2017 21:00:00 -3,4 -3,8 2 1 4 2 ESE 994,5 31 0,0
17.11.2017 20:00:00 -3,2 -3,6 2 1 6 4 SSW 994,6 32 0,0
17.11.2017 19:00:00 -3,9 -4,6 3 1 10 5 WSW 994,5 29 0,0
17.11.2017 18:00:00 -3,0 -3,7 5 3 13 7 WSW 994,6 15 0,0
17.11.2017 17:00:00 -3,0 -3,5 2 1 6 4 WNW 994,8 21 0,0
17.11.2017 16:00:00 -3,4 -3,9 4 2 8 5 WSW 994,9 17 0,0
17.11.2017 15:00:00 -2,7 -3,2 0 0 10 5 N 994,6 17 0,0
17.11.2017 14:00:00 -2,8 -3,5 3 2 9 5 W 994,6 16 0,0
17.11.2017 13:00:00 -1,5 -2,1 6 4 20 11 WSW 994,2 14 0,0
17.11.2017 12:00:00 -1,2 -1,6 8 4 16 8 WSW 994,1 3,7 0,2
17.11.2017 11:00:00 -1,2 -1,5 4 2 10 5 W 994,2 29 0,0
17.11.2017 10:00:00 -1,8 -2,1 4 2 8 4 W 993,9 40 0,0
17.11.2017 09:00:00 -1,8 -2,1 0 0 7 4 N 994,0 18 0,2
17.11.2017 08:00:00 -1,5 -1,8 4 2 13 7 W 994,1 2,0 1,0
17.11.2017 07:00:00 -1,4 -1,5 4 2 10 5 WSW 994,1 1,3 0,9
17.11.2017 06:00:00 -1,5 -1,6 2 1 4 2 W 993,9 0,6 0,7
17.11.2017 05:00:00 -1,7 -2,0 0 0 2 1 N 994,2 3,2 0,2
17.11.2017 04:00:00 -1,6 -1,9 0 0 0 0 N 994,8 1,6 0,8
17.11.2017 03:00:00 -1,6 -1,9 0 0 0 0 N 995,6 1,3 0,8
17.11.2017 02:00:00 -1,5 -1,6 0 0 3 2 N 996,3 1,7 0,9
17.11.2017 01:00:00 -1,4 -1,5 0 0 6 3 N 997,0 2,4 0,2
17.11.2017 00:00:00 -1,6 -1,9 0 0 5 3 N 998,1 3,2 0,2
16.11.2017 23:00:00 -1,8 -2,1 3 1 11 6 E 999,2 2,2 0,3
16.11.2017 22:00:00 -2,0 -2,4 6 3 12 6 SE 1000,5 3,6 0,5
16.11.2017 21:00:00 -2,0 -2,4 5 3 11 6 SSE 1001,8 2,2 0,2
16.11.2017 20:00:00 -2,3 -2,7 4 2 7 4 SE 1002,8 22 0,0
16.11.2017 19:00:00 -3,0 -3,4 0 0 8 4 N 1004,1 30 0,0
16.11.2017 18:00:00 -3,1 -3,5 4 2 9 5 E 1005,1 32 0,0
16.11.2017 17:00:00 -4,6 -5,1 3 2 6 3 ESE 1006,8 21 0,0
16.11.2017 16:00:00 -5,5 -6,2 0 0 6 3 N 1008,2 32 0,0
16.11.2017 15:00:00 -5,8 -6,5 3 1 5 3 ESE 1009,6 14 0,0
16.11.2017 14:00:00 -4,6 -5,0 3 2 6 3 SE 1010,2 30 0,0
16.11.2017 13:00:00 -4,7 -5,1 0 0 4 2 N 1011,0 30 0,0
16.11.2017 12:00:00 -5,3 -5,8 0 0 5 3 N 1011,5 27 0,0
16.11.2017 11:00:00 -5,7 -6,2 0 0 7 4 N 1011,7 37 0,0
16.11.2017 10:00:00 -6,7 -7,4 0 0 5 3 N 1012,2 48 0,0
16.11.2017 09:00:00 -5,1 -6,1 2 1 12 6 W 1011,9 46 0,0
16.11.2017 08:00:00 -3,1 -3,5 7 4 12 7 W 1011,3 50 0,0
16.11.2017 07:00:00 -3,8 -4,2 4 2 10 5 W 1011,1 50 0,0
16.11.2017 06:00:00 -3,6 -4,1 3 2 11 6 WSW 1010,6 50 0,0
16.11.2017 05:00:00 -2,5 -2,8 4 2 13 7 W 1009,8 50 0,0
16.11.2017 04:00:00 -5,2 -5,2 5 3 10 5 W 1009,4 50 0,0
16.11.2017 03:00:00 -5,1 -5,5 0 0 5 3 N 1008,9 50 0,0
16.11.2017 02:00:00 -2,7 -3,0 0 0 11 6 N 1007,4 50 0,0
16.11.2017 01:00:00 -0,6 -0,7 5 3 16 9 WNW 1006,3 50 0,0
16.11.2017 00:00:00 -1,3 -1,4 8 4 16 8 W 1005,0 17 0,2
15.11.2017 23:00:00 -6,5 -7,2 0 0 3 1 N 1004,7 3,0 0,0
15.11.2017 22:00:00 -7,1 -7,9 0 0 4 2 N 1004,6 50 0,0
15.11.2017 21:00:00 -8,6 -9,4 0 0 4 2 N 1004,6 37 0,0
15.11.2017 20:00:00 -12,7 -14,0 0 0 3 2 N 1005,2 50 0,0
15.11.2017 19:00:00 -12,9 -14,3 0 0 5 3 N 1005,3 50 0,0
15.11.2017 18:00:00 -12,0 -13,3 0 0 4 2 N 1005,1 50 0,0
15.11.2017 17:00:00 -11,1 -12,3 2 1 4 2 ESE 1004,9 50 0,0
15.11.2017 16:00:00 -10,5 -11,7 0 0 5 3 N 1004,6 50 0,0
15.11.2017 15:00:00 -8,1 -9,0 0 0 4 2 N 1004,2 50 0,0
15.11.2017 14:00:00 -7,7 -8,5 0 0 5 3 N 1004,1 50 0,0
15.11.2017 13:00:00 -8,6 -9,5 0 0 3 2 N 1003,9 50 0,0
15.11.2017 12:00:00 -9,3 -10,2 0 0 2 1 N 1003,8 50 0,1
15.11.2017 11:00:00 -10,1 -11,1 0 0 3 2 N 1003,9 5 0,2
15.11.2017 10:00:00 -11,7 -12,9 0 0 4 2 N 1004,1 8 0,1
15.11.2017 09:00:00 -13,3 -14,7 0 0 3 1 N 1004,2 11 0,0
15.11.2017 08:00:00 -13,3 -14,7 0 0 3 1 N 1004,2 18 0,0
15.11.2017 07:00:00 -12,5 -13,8 0 0 3 1 N 1004,1 49 0,0
15.11.2017 06:00:00 -12,0 -13,3 0 0 4 2 N 1004,2 24 0,0
15.11.2017 05:00:00 -11,1 -12,3 2 1 7 4 SW 1004,6 4,0 0,0
15.11.2017 04:00:00 -10,8 -11,8 0 0 4 2 N 1004,6 2,4 0,0
15.11.2017 03:00:00 -11,2 -12,4 0 0 3 2 N 1005,0 2,1 0,0
15.11.2017 02:00:00 -10,8 -11,8 0 0 3 2 N 1004,9 8 0,0
15.11.2017 01:00:00 -10,7 -11,7 0 0 4 2 N 1005,1 1,0 0,0
15.11.2017 00:00:00 -10,6 -11,6 0 0 4 2 N 1005,2 0,9 0,0
14.11.2017 23:00:00 -10,7 -11,7 0 0 3 1 N 1005,1 0,6 0,0
14.11.2017 22:00:00 -10,5 -11,5 0 0 3 2 N 1004,9 0,5 0,0
14.11.2017 21:00:00 -10,1 -11,1 0 0 2 1 N 1004,8 2,3 0,0
14.11.2017 20:00:00 -9,6 -10,4 0 0 2 1 N 1004,5 0,4 0,0
14.11.2017 19:00:00 -10,0 -10,6 0 0 2 1 N 1004,2 0,3 0,0
14.11.2017 18:00:00 -11,6 -12,8 0 0 1 1 N 1004,1 50 0,0
14.11.2017 17:00:00 -11,7 -13,1 0 0 3 2 N 1004,1 50 0,0
14.11.2017 16:00:00 -10,2 -11,4 0 0 2 1 N 1004,0 50 0,0
14.11.2017 15:00:00 -8,2 -9,1 0 0 2 1 N 1004,1 49 0,0
14.11.2017 14:00:00 -6,5 -7,3 0 0 3 2 N 1003,7 32 0,0
14.11.2017 13:00:00 -5,7 -6,4 0 0 4 2 N 1003,9 42 0,0
14.11.2017 12:00:00 -6,5 -7,2 0 0 3 2 N 1004,0 35 0,0
14.11.2017 11:00:00 -8,1 -8,9 0 0 5 3 N 1004,1 50 0,0
14.11.2017 10:00:00 -9,9 -11,0 0 0 5 3 N 1004,5 50 0,0
14.11.2017 09:00:00 -10,8 -12,0 0 0 3 2 N 1004,6 50 0,0
14.11.2017 08:00:00 -10,7 -11,7 0 0 2 1 N 1004,8 47 0,0
14.11.2017 07:00:00 -10,3 -11,5 0 0 3 2 N 1004,6 50 0,0
14.11.2017 06:00:00 -9,3 -10,2 0 0 6 3 N 1004,8 50 0,0
14.11.2017 05:00:00 -8,7 -9,6 0 0 4 2 N 1005,1 50 0,0
14.11.2017 04:00:00 -9,6 -10,5 0 0 5 3 N 1005,4 50 0,0
14.11.2017 03:00:00 -9,4 -10,3 3 2 5 3 N 1005,6 50 0,0
14.11.2017 02:00:00 -9,0 -10,1 0 0 4 2 N 1005,7 50 0,0
14.11.2017 01:00:00 -8,5 -9,4 2 1 9 5 WNW 1005,6 50 0,0

tt = Température de l'air
td = dewpoint
ff = Vitesse du vent
fx = gusts
dd = Direction du vent
ppp = reduced air pressure
vv = visibility
rr = Quantités de précipitations

stations d'obs. à proximité